BAW466 EDDK-EGLL

Flight info

Callsign BAW466
Flight time 0h 59m
Altitude 32000
Route NVO3B NVO Y868 SOGRI DCT DENUT L608 LOGAN
Aircraft A320/M-SDE3FGHIRWY/LB1

Departure

Time 2026-04-20 17:36
Airport Cologne Bonn Airport (EDDK)

Arrival

Time 2026-04-20 18:36
Airport London Heathrow Airport (EGLL)
Time Latitude Longitude Altitude Speed Heading
2026-04-20 16:51 50.88122 7.12039 230 ft 0 kts 215°
2026-04-20 17:23 50.88130 7.12049 232 ft 3 kts 213°
2026-04-20 17:24 50.88148 7.12065 230 ft 3 kts 204°
2026-04-20 17:24 50.88167 7.12075 232 ft 3 kts 187°
2026-04-20 17:24 50.88185 7.12075 234 ft 3 kts 152°
2026-04-20 17:24 50.88194 7.12064 232 ft 1 kts 126°
2026-04-20 17:25 50.88196 7.12059 231 ft 1 kts 126°
2026-04-20 17:27 50.88187 7.12080 234 ft 7 kts 126°
2026-04-20 17:27 50.88120 7.12225 231 ft 24 kts 126°
2026-04-20 17:27 50.88039 7.12442 230 ft 23 kts 133°
2026-04-20 17:27 50.87918 7.12608 230 ft 19 kts 158°
2026-04-20 17:28 50.87791 7.12666 230 ft 17 kts 140°
2026-04-20 17:28 50.87788 7.12760 230 ft 15 kts 73°
2026-04-20 17:28 50.87721 7.12920 231 ft 21 kts 136°
2026-04-20 17:28 50.87598 7.13100 231 ft 26 kts 135°
2026-04-20 17:29 50.87461 7.13300 234 ft 28 kts 138°
2026-04-20 17:29 50.87314 7.13514 238 ft 30 kts 137°
2026-04-20 17:29 50.87157 7.13742 243 ft 31 kts 137°
2026-04-20 17:29 50.87011 7.13952 248 ft 24 kts 138°
2026-04-20 17:30 50.86956 7.14031 250 ft 4 kts 138°
2026-04-20 17:30 50.86952 7.14036 250 ft 2 kts 138°
2026-04-20 17:30 50.86919 7.14036 250 ft 10 kts 207°
2026-04-20 17:30 50.86821 7.14080 248 ft 17 kts 138°
2026-04-20 17:31 50.86718 7.14166 254 ft 17 kts 144°
2026-04-20 17:31 50.86616 7.14306 257 ft 25 kts 139°
2026-04-20 17:31 50.86452 7.14541 262 ft 34 kts 136°
2026-04-20 17:31 50.86282 7.14790 268 ft 34 kts 137°
2026-04-20 17:32 50.86109 7.15043 274 ft 34 kts 138°
2026-04-20 17:32 50.85934 7.15297 282 ft 34 kts 137°
2026-04-20 17:32 50.85762 7.15543 293 ft 33 kts 138°
2026-04-20 17:32 50.85594 7.15787 299 ft 33 kts 138°
2026-04-20 17:33 50.85432 7.16020 302 ft 22 kts 137°
2026-04-20 17:33 50.85348 7.16180 306 ft 16 kts 114°
2026-04-20 17:33 50.85336 7.16309 309 ft 12 kts 83°
2026-04-20 17:33 50.85371 7.16428 311 ft 13 kts 49°
2026-04-20 17:34 50.85377 7.16438 311 ft 0 kts 48°
2026-04-20 17:34 50.85380 7.16444 311 ft 5 kts 47°
2026-04-20 17:35 50.85483 7.16518 314 ft 23 kts
2026-04-20 17:35 50.85617 7.16428 310 ft 0 kts 319°
2026-04-20 17:35 50.85699 7.16311 308 ft 49 kts 317°
2026-04-20 17:36 50.86133 7.15684 286 ft 116 kts 317°
2026-04-20 17:36 50.86874 7.14669 299 ft 160 kts 321°
2026-04-20 17:36 50.87672 7.13534 984 ft 155 kts 317°
2026-04-20 17:36 50.88471 7.12370 1670 ft 159 kts 320°
2026-04-20 17:37 50.89351 7.11110 2031 ft 181 kts 320°
2026-04-20 17:37 50.90314 7.09722 2560 ft 193 kts 319°
2026-04-20 17:37 50.91135 7.08050 3353 ft 197 kts 294°
2026-04-20 17:37 50.91297 7.05852 4019 ft 213 kts 261°
2026-04-20 17:38 50.90819 7.03529 4663 ft 228 kts 253°
2026-04-20 17:38 50.90272 7.01038 5193 ft 252 kts 253°
2026-04-20 17:38 50.89685 6.98312 5866 ft 267 kts 253°
2026-04-20 17:38 50.89080 6.95502 6796 ft 272 kts 253°
2026-04-20 17:39 50.88474 6.92679 7702 ft 276 kts 253°
2026-04-20 17:39 50.87853 6.89772 8604 ft 281 kts 252°
2026-04-20 17:39 50.87225 6.86816 9528 ft 285 kts 252°
2026-04-20 17:39 50.86585 6.83806 10263 ft 296 kts 252°
2026-04-20 17:40 50.85900 6.80588 10562 ft 320 kts 252°
2026-04-20 17:40 50.85167 6.77164 11018 ft 334 kts 252°
2026-04-20 17:40 50.84414 6.73656 11728 ft 340 kts 252°
2026-04-20 17:40 50.83647 6.70092 12497 ft 344 kts 253°
2026-04-20 17:41 50.82880 6.66487 13270 ft 347 kts 254°
2026-04-20 17:41 50.82386 6.62745 14024 ft 350 kts 265°
2026-04-20 17:41 50.82330 6.58890 14700 ft 352 kts 272°
2026-04-20 17:41 50.82393 6.55008 15453 ft 353 kts 272°
2026-04-20 17:42 50.82447 6.51115 16186 ft 355 kts 272°
2026-04-20 17:42 50.82498 6.47202 16854 ft 358 kts 272°
2026-04-20 17:42 50.82543 6.43254 17532 ft 361 kts 272°
2026-04-20 17:42 50.82587 6.39308 18191 ft 365 kts 272°
2026-04-20 17:43 50.82633 6.35277 18831 ft 368 kts 272°
2026-04-20 17:43 50.82678 6.31207 19443 ft 372 kts 272°
2026-04-20 17:43 50.82721 6.27100 20065 ft 375 kts 272°
2026-04-20 17:43 50.82761 6.22940 20670 ft 379 kts 272°
2026-04-20 17:44 50.82801 6.18752 21258 ft 383 kts 271°
2026-04-20 17:44 50.82843 6.14513 21831 ft 387 kts 271°
2026-04-20 17:44 50.82881 6.10232 22399 ft 391 kts 271°
2026-04-20 17:44 50.82917 6.05969 23027 ft 393 kts 272°
2026-04-20 17:45 50.82953 6.01638 23586 ft 396 kts 271°
2026-04-20 17:45 50.82938 5.97247 24071 ft 400 kts 269°
2026-04-20 17:45 50.82859 5.92840 24563 ft 401 kts 269°
2026-04-20 17:45 50.82747 5.88428 25064 ft 403 kts 268°
2026-04-20 17:46 50.82623 5.83998 25542 ft 404 kts 268°
2026-04-20 17:46 50.82501 5.79544 26021 ft 406 kts 269°
2026-04-20 17:46 50.82385 5.75082 26493 ft 407 kts 269°
2026-04-20 17:46 50.82275 5.70609 26955 ft 408 kts 269°
2026-04-20 17:47 50.82169 5.66110 27414 ft 410 kts 269°
2026-04-20 17:47 50.82068 5.61594 27877 ft 411 kts 270°
2026-04-20 17:47 50.82004 5.58612 28218 ft 411 kts 270°
2026-04-20 17:47 50.81906 5.54092 28712 ft 411 kts 270°
2026-04-20 17:48 50.81807 5.49572 29157 ft 413 kts 270°
2026-04-20 17:48 50.81703 5.45027 29590 ft 414 kts 270°
2026-04-20 17:48 50.81590 5.40468 30017 ft 416 kts 270°
2026-04-20 17:48 50.81474 5.35891 30400 ft 418 kts 270°
2026-04-20 17:49 50.81358 5.31284 30722 ft 420 kts 270°
2026-04-20 17:49 50.81242 5.26656 31025 ft 422 kts 270°
2026-04-20 17:49 50.81121 5.22008 31324 ft 425 kts 270°
2026-04-20 17:49 50.80995 5.17335 31709 ft 425 kts 270°
2026-04-20 17:50 50.80866 5.12665 32083 ft 424 kts 270°
2026-04-20 17:50 50.81378 5.03593 32198 ft 405 kts 285°
2026-04-20 17:51 50.83508 4.95467 32197 ft 399 kts 296°
2026-04-20 17:51 50.85999 4.87615 32204 ft 399 kts 297°
2026-04-20 17:52 50.88477 4.79822 32207 ft 399 kts 297°
2026-04-20 17:52 50.90964 4.71956 32204 ft 399 kts 297°
2026-04-20 17:53 50.93436 4.64093 32198 ft 398 kts 296°
2026-04-20 17:53 50.95892 4.56228 32206 ft 397 kts 296°
2026-04-20 17:54 50.98338 4.48367 32210 ft 397 kts 296°
2026-04-20 17:54 51.00775 4.40509 32208 ft 397 kts 296°
2026-04-20 17:55 51.03206 4.32652 32211 ft 396 kts 296°
2026-04-20 17:55 51.05636 4.24787 32229 ft 396 kts 296°
2026-04-20 17:56 51.08064 4.16919 32226 ft 396 kts 296°
2026-04-20 17:56 51.10483 4.09043 32221 ft 396 kts 296°
2026-04-20 17:57 51.12875 4.01215 32217 ft 396 kts 296°
2026-04-20 17:57 51.15277 3.93329 32213 ft 396 kts 296°
2026-04-20 17:58 51.17678 3.85426 32212 ft 396 kts 296°
2026-04-20 17:58 51.20074 3.77513 32208 ft 395 kts 296°
2026-04-20 17:59 51.22452 3.69631 32233 ft 394 kts 296°
2026-04-20 17:59 51.25029 3.61956 32236 ft 392 kts 300°
2026-04-20 18:00 51.27808 3.54476 32239 ft 391 kts 300°
2026-04-20 18:00 51.30587 3.46980 32217 ft 393 kts 300°
2026-04-20 18:01 51.33375 3.39422 32210 ft 395 kts 300°
2026-04-20 18:01 51.35757 3.31570 32196 ft 396 kts 291°
2026-04-20 18:02 51.37713 3.23328 32220 ft 396 kts 291°
2026-04-20 18:02 51.39664 3.15091 32230 ft 395 kts 291°
2026-04-20 18:03 51.41603 3.06862 32236 ft 395 kts 291°
2026-04-20 18:03 51.43542 2.98624 32243 ft 395 kts 291°
2026-04-20 18:04 51.45479 2.90382 32241 ft 395 kts 291°
2026-04-20 18:04 51.47403 2.82137 32247 ft 394 kts 291°
2026-04-20 18:05 51.50242 2.69870 32263 ft 392 kts 291°
2026-04-20 18:05 51.52133 2.61673 32268 ft 391 kts 291°
2026-04-20 18:06 51.54012 2.53482 32262 ft 391 kts 291°
2026-04-20 18:06 51.55898 2.45287 32255 ft 392 kts 291°
2026-04-20 18:07 51.57787 2.37047 32234 ft 393 kts 291°
2026-04-20 18:07 51.59667 2.28792 32250 ft 393 kts 291°
2026-04-20 18:08 51.61533 2.20542 32254 ft 393 kts 291°
2026-04-20 18:08 51.62466 2.16406 32057 ft 393 kts 291°
2026-04-20 18:08 51.63396 2.12276 31806 ft 392 kts 291°
2026-04-20 18:09 51.64326 2.08156 31495 ft 390 kts 291°
2026-04-20 18:09 51.65245 2.04079 30960 ft 386 kts 291°
2026-04-20 18:09 51.66153 2.00036 30418 ft 383 kts 291°
2026-04-20 18:09 51.67051 1.96019 29809 ft 379 kts 291°
2026-04-20 18:10 51.67935 1.92046 29251 ft 374 kts 291°
2026-04-20 18:10 51.68804 1.88133 28751 ft 368 kts 291°
2026-04-20 18:10 51.69652 1.84320 28233 ft 364 kts 291°
2026-04-20 18:10 51.70502 1.80496 27731 ft 360 kts 291°
2026-04-20 18:11 51.71340 1.76718 27233 ft 357 kts 291°
2026-04-20 18:11 51.72170 1.72961 26742 ft 354 kts 291°
2026-04-20 18:11 51.72993 1.69233 26257 ft 352 kts 291°
2026-04-20 18:11 51.73813 1.65515 25790 ft 351 kts 290°
2026-04-20 18:12 51.74406 1.61700 25336 ft 352 kts 280°
2026-04-20 18:12 51.74531 1.57749 24815 ft 356 kts 270°
2026-04-20 18:12 51.74289 1.53744 24277 ft 359 kts 267°
2026-04-20 18:12 51.74026 1.49727 23716 ft 361 kts 267°
2026-04-20 18:13 51.73766 1.45687 23123 ft 361 kts 267°
2026-04-20 18:13 51.73510 1.41673 22592 ft 359 kts 268°
2026-04-20 18:13 51.73251 1.37670 22053 ft 357 kts 267°
2026-04-20 18:13 51.72992 1.33697 21519 ft 356 kts 267°
2026-04-20 18:14 51.72732 1.29736 20985 ft 354 kts 267°
2026-04-20 18:14 51.72474 1.25792 20451 ft 352 kts 267°
2026-04-20 18:14 51.72212 1.21865 19927 ft 351 kts 266°
2026-04-20 18:14 51.71951 1.17969 19400 ft 349 kts 266°
2026-04-20 18:15 51.71688 1.14081 18878 ft 347 kts 266°
2026-04-20 18:15 51.71425 1.10214 18330 ft 346 kts 266°
2026-04-20 18:15 51.71167 1.06421 17799 ft 343 kts 266°
2026-04-20 18:15 51.70905 1.02611 17285 ft 340 kts 266°
2026-04-20 18:16 51.70646 0.98837 16773 ft 337 kts 266°
2026-04-20 18:16 51.70391 0.95105 16507 ft 333 kts 265°
2026-04-20 18:16 51.70134 0.91383 16246 ft 334 kts 265°
2026-04-20 18:16 51.69877 0.87671 15986 ft 333 kts 265°
2026-04-20 18:17 51.69619 0.83961 15731 ft 332 kts 265°
2026-04-20 18:17 51.69360 0.80265 15475 ft 331 kts 265°
2026-04-20 18:17 51.69100 0.76584 15220 ft 330 kts 265°
2026-04-20 18:17 51.68837 0.72908 14970 ft 330 kts 265°
2026-04-20 18:18 51.68578 0.69250 14720 ft 328 kts 265°
2026-04-20 18:18 51.68322 0.65596 14474 ft 327 kts 265°
2026-04-20 18:18 51.68066 0.61955 14228 ft 326 kts 265°
2026-04-20 18:18 51.67806 0.58322 13973 ft 325 kts 265°
2026-04-20 18:19 51.67547 0.54752 13696 ft 317 kts 265°
2026-04-20 18:19 51.67288 0.51226 13425 ft 318 kts 265°
2026-04-20 18:19 51.67029 0.47687 13147 ft 318 kts 265°
2026-04-20 18:19 51.66768 0.44158 12881 ft 316 kts 266°
2026-04-20 18:20 51.66509 0.40652 12620 ft 314 kts 265°
2026-04-20 18:20 51.66248 0.37152 12353 ft 314 kts 266°
2026-04-20 18:20 51.65988 0.33660 12091 ft 314 kts 265°
2026-04-20 18:20 51.65729 0.30172 11833 ft 313 kts 265°
2026-04-20 18:21 51.65469 0.26741 11579 ft 312 kts 265°
2026-04-20 18:21 51.65205 0.23272 11324 ft 311 kts 265°
2026-04-20 18:21 51.64943 0.19821 11107 ft 310 kts 266°
2026-04-20 18:21 51.64685 0.16407 10935 ft 303 kts 266°
2026-04-20 18:22 51.64446 0.13091 10758 ft 293 kts 268°
2026-04-20 18:22 51.64258 0.09859 10583 ft 288 kts 267°
2026-04-20 18:22 51.64095 0.06656 10410 ft 287 kts 269°
2026-04-20 18:22 51.63939 0.03460 10239 ft 286 kts 268°
2026-04-20 18:23 51.63778 0.00281 10059 ft 285 kts 269°
2026-04-20 18:23 51.63608 -0.02903 9897 ft 284 kts 267°
2026-04-20 18:23 51.63432 -0.06073 9634 ft 283 kts 268°
2026-04-20 18:23 51.63254 -0.09227 9365 ft 282 kts 268°
2026-04-20 18:24 51.63076 -0.12371 9102 ft 281 kts 267°
2026-04-20 18:24 51.62897 -0.15499 8837 ft 280 kts 266°
2026-04-20 18:24 51.62717 -0.18614 8577 ft 280 kts 266°
2026-04-20 18:24 51.62538 -0.21724 8328 ft 279 kts 268°
2026-04-20 18:25 51.62359 -0.24831 8053 ft 278 kts 268°
2026-04-20 18:25 51.62177 -0.27931 7795 ft 278 kts 267°
2026-04-20 18:25 51.61994 -0.31018 7538 ft 276 kts 267°
2026-04-20 18:25 51.61814 -0.34098 7229 ft 276 kts 266°
2026-04-20 18:26 51.61635 -0.37166 6981 ft 275 kts 266°
2026-04-20 18:26 51.61457 -0.40227 6726 ft 275 kts 266°
2026-04-20 18:26 51.61274 -0.43291 6378 ft 275 kts 266°
2026-04-20 18:26 51.61090 -0.46349 5994 ft 275 kts 267°
2026-04-20 18:27 51.60910 -0.49374 5650 ft 275 kts 267°
2026-04-20 18:27 51.60730 -0.52436 5281 ft 275 kts 266°
2026-04-20 18:27 51.60546 -0.55487 4914 ft 271 kts 267°
2026-04-20 18:27 51.60361 -0.58443 4538 ft 261 kts 266°
2026-04-20 18:28 51.60173 -0.61288 4174 ft 251 kts 266°
2026-04-20 18:28 51.59991 -0.64032 3814 ft 242 kts 266°
2026-04-20 18:28 51.59813 -0.66694 3587 ft 236 kts 266°
2026-04-20 18:28 51.59636 -0.69276 3404 ft 229 kts 266°
2026-04-20 18:29 51.59326 -0.71748 3237 ft 224 kts 246°
2026-04-20 18:29 51.58403 -0.73687 3118 ft 215 kts 218°
2026-04-20 18:29 51.57135 -0.74763 3009 ft 201 kts 189°
2026-04-20 18:29 51.55796 -0.74958 2928 ft 186 kts 174°
2026-04-20 18:30 51.54529 -0.74863 2848 ft 179 kts 172°
2026-04-20 18:30 51.53306 -0.74730 2734 ft 175 kts 171°
2026-04-20 18:30 51.52112 -0.74497 2632 ft 172 kts 163°
2026-04-20 18:30 51.50965 -0.74028 2547 ft 169 kts 153°
2026-04-20 18:31 51.49905 -0.73242 2510 ft 166 kts 144°
2026-04-20 18:31 51.48935 -0.72300 2507 ft 164 kts 139°
2026-04-20 18:31 51.48137 -0.71052 2509 ft 158 kts 117°
2026-04-20 18:31 51.47711 -0.69477 2510 ft 152 kts 97°
2026-04-20 18:32 51.47648 -0.67805 2441 ft 150 kts 85°
2026-04-20 18:32 51.47659 -0.66202 2303 ft 136 kts 85°
2026-04-20 18:32 51.47668 -0.64739 2133 ft 128 kts 85°
2026-04-20 18:32 51.47676 -0.63325 1968 ft 125 kts 85°
2026-04-20 18:33 51.47684 -0.61930 1799 ft 124 kts 85°
2026-04-20 18:33 51.47692 -0.60552 1642 ft 124 kts 84°
2026-04-20 18:33 51.47698 -0.59175 1474 ft 123 kts 85°
2026-04-20 18:33 51.47706 -0.57796 1308 ft 124 kts 85°
2026-04-20 18:34 51.47712 -0.56410 1118 ft 125 kts 86°
2026-04-20 18:34 51.47718 -0.55014 940 ft 125 kts 87°
2026-04-20 18:34 51.47726 -0.53619 780 ft 126 kts 85°
2026-04-20 18:34 51.47731 -0.52210 600 ft 125 kts 86°
2026-04-20 18:35 51.47737 -0.50829 433 ft 126 kts 87°
2026-04-20 18:35 51.47744 -0.49421 263 ft 124 kts 86°
2026-04-20 18:35 51.47753 -0.48033 106 ft 124 kts 86°
2026-04-20 18:35 51.47760 -0.46795 91 ft 97 kts 88°
2026-04-20 18:36 51.47762 -0.45961 85 ft 50 kts 90°
2026-04-20 18:36 51.47762 -0.45582 85 ft 25 kts 96°
2026-04-20 18:36 51.47646 -0.45471 88 ft 14 kts 175°
2026-04-20 18:36 51.47608 -0.45488 90 ft 9 kts 229°
2026-04-20 18:37 51.47595 -0.45619 90 ft 16 kts 269°
2026-04-20 18:37 51.47594 -0.45825 87 ft 20 kts 270°
2026-04-20 18:37 51.47595 -0.46066 88 ft 24 kts 270°
2026-04-20 18:37 51.47594 -0.46352 86 ft 27 kts 269°
2026-04-20 18:38 51.47592 -0.46672 86 ft 30 kts 270°
2026-04-20 18:38 51.47581 -0.47000 90 ft 30 kts 266°
2026-04-20 18:38 51.47582 -0.47348 91 ft 33 kts 269°
2026-04-20 18:38 51.47581 -0.47731 90 ft 36 kts 270°
2026-04-20 18:39 51.47578 -0.48084 88 ft 19 kts 260°
2026-04-20 18:39 51.47490 -0.48184 88 ft 15 kts 249°
2026-04-20 18:39 51.47489 -0.48335 86 ft 10 kts 266°
2026-04-20 18:39 51.47471 -0.48459 89 ft 13 kts 225°
2026-04-20 18:40 51.47374 -0.48473 86 ft 16 kts 180°
2026-04-20 18:40 51.47317 -0.48502 88 ft 8 kts 258°
2026-04-20 18:40 51.47316 -0.48575 86 ft 2 kts 270°
2026-04-20 18:40 51.47316 -0.48588 86 ft 0 kts 269°